Weather History for KIZG - April, 2013

Change the Weather History Date:

Friday, April 26, 2013

  Actual Average Record
Temperature  
Mean Temperature 42 °F -  
Max Temperature 61 °F 59 °F 66 °F (2005)
Min Temperature 24 °F 30 °F 21 °F (2001)
Degree Days  
Heating Degree Days 23    
Moisture  
Dew Point 26 °F    
Average Humidity 75    
Maximum Humidity 100    
Minimum Humidity 26    
Precipitation  
Precipitation 0.00 in - - ()
Sea Level Pressure  
Sea Level Pressure 30.39 in    
Wind  
Wind Speed 1 mph (West)    
Max Wind Speed 7 mph    
Max Gust Speed -    
Visibility 7 miles    
Events Fog    
Averages and records for this station are not official NWS values.
T = Trace of Precipitation, MM = Missing Value Source: NWS Daily Summary

Daily Weather History Graph

Daily Weather History Graph

Search for Another Location

Airport or City:

Trip Planner

Search our weather history database for the weather conditions in past years. The results will help you decide how hot, cold, wet, or windy it might be!

Date:

Astronomy

Apr. 26, 2013 Rise Set
Actual Time 5:42 AM EDT 7:41 PM EDT
Civil Twilight 5:11 AM EDT 8:12 PM EDT
Nautical Twilight 4:33 AM EDT 8:50 PM EDT
Astronomical Twilight 3:51 AM EDT 9:32 PM EDT
Moon 9:03 PM EDT (4/26) 6:05 AM EDT (4/26)
Length of Visible Light 15h 01m
Length of Day
13h 58m
Full, 99% of the Moon is Illuminated
Apr 26
Full
May 2
Last Quarter
May 9
New
May 18
First Quarter
May 25
Full

Hourly Weather History & Observations

Time (EDT) Temp. Windchill Dew Point Humidity Pressure Visibility Wind Dir Wind Speed Gust Speed Precip Events Conditions
12:54 AM 28.9 °F - 26.1 °F 89% 30.32 in 10.0 mi Calm Calm - N/A   Clear
1:54 AM 28.0 °F - 25.0 °F 88% 30.34 in 10.0 mi Calm Calm - N/A   Clear
2:54 AM 28.0 °F - 25.0 °F 88% 30.34 in 10.0 mi Calm Calm - N/A   Clear
3:38 AM 26.6 °F - 24.8 °F 93% 30.34 in 2.0 mi Calm Calm - N/A   Clear
3:47 AM 26.6 °F - 24.8 °F 93% 30.34 in 10.0 mi Calm Calm - N/A   Clear
3:51 AM 24.8 °F - 24.8 °F 100% 30.34 in 1.2 mi Calm Calm - N/A   Clear
3:54 AM 25.0 °F - 24.1 °F 96% 30.36 in 0.8 mi Calm Calm - N/A   Clear
4:03 AM 24.8 °F - 24.8 °F 100% 30.35 in 1.8 mi Calm Calm - N/A   Clear
4:10 AM 26.6 °F - 24.8 °F 93% 30.35 in 1.8 mi Calm Calm - N/A   Partly Cloudy
4:15 AM 24.8 °F - 24.8 °F 100% 30.35 in 4.0 mi Calm Calm - N/A   Clear
4:27 AM 26.6 °F - 24.8 °F 93% 30.35 in 1.0 mi Calm Calm - N/A   Mist
4:34 AM 24.8 °F - 24.8 °F 100% 30.36 in 0.8 mi Calm Calm - N/A   Mist
4:36 AM 24.8 °F - 24.8 °F 100% 30.36 in 1.5 mi Calm Calm - N/A   Clear
4:38 AM 24.8 °F - 24.8 °F 100% 30.36 in 4.0 mi Calm Calm - N/A   Clear
4:54 AM 25.0 °F 20.7 °F 24.1 °F 96% 30.37 in 2.0 mi West 3.5 mph - N/A   Partly Cloudy
4:57 AM 24.8 °F - 23.0 °F 93% 30.36 in 1.2 mi Calm Calm - N/A   Clear
5:07 AM 24.8 °F - 23.0 °F 93% 30.36 in 2.0 mi Calm Calm - N/A   Clear
5:14 AM 24.8 °F - 23.0 °F 93% 30.37 in 10.0 mi Calm Calm - N/A   Clear
5:54 AM 25.0 °F - 21.9 °F 88% 30.40 in 10.0 mi Calm Calm - N/A   Clear
6:00 AM 24.8 °F - 23.0 °F 93% 30.39 in 1.0 mi Calm Calm - N/A   Clear
6:03 AM 24.8 °F - 23.0 °F 93% 30.39 in 0.2 mi Calm Calm - N/A Fog Light Freezing Fog
6:16 AM 24.8 °F - 24.8 °F 100% 30.40 in 1.0 mi Calm Calm - N/A   Mist
6:26 AM 26.6 °F - 24.8 °F 93% 30.40 in 2.5 mi Calm Calm - N/A   Partly Cloudy
6:33 AM 26.6 °F - 24.8 °F 93% 30.41 in 10.0 mi Calm Calm - N/A   Clear
6:54 AM 28.9 °F - 28.0 °F 96% 30.43 in 10.0 mi Calm Calm - N/A   Clear
7:54 AM 39.0 °F - 28.9 °F 67% 30.44 in 10.0 mi Calm Calm - 0.00 in   Clear
8:54 AM 46.9 °F - 26.1 °F 44% 30.45 in 10.0 mi Variable 3.5 mph - 0.00 in   Clear
9:54 AM 51.1 °F - 26.1 °F 38% 30.45 in 10.0 mi Calm Calm - 0.00 in   Clear
10:54 AM 54.0 °F - 23.0 °F 30% 30.45 in 10.0 mi NNE 5.8 mph - N/A   Clear
11:54 AM 57.0 °F - 24.1 °F 28% 30.43 in 10.0 mi Variable 5.8 mph - N/A   Clear
12:54 PM 57.9 °F - 25.0 °F 28% 30.42 in 10.0 mi Variable 6.9 mph - N/A   Mostly Cloudy
1:54 PM 60.1 °F - 25.0 °F 26% 30.40 in 10.0 mi Variable 4.6 mph - N/A   Mostly Cloudy
2:54 PM 57.0 °F - 24.1 °F 28% 30.38 in 10.0 mi Calm Calm - N/A   Scattered Clouds
3:54 PM 57.9 °F - 25.0 °F 28% 30.38 in 10.0 mi Calm Calm - N/A   Overcast
4:54 PM 57.0 °F - 26.1 °F 30% 30.38 in 10.0 mi Variable 3.5 mph - N/A   Overcast
5:54 PM 57.0 °F - 27.0 °F 32% 30.39 in 10.0 mi SW 5.8 mph - N/A   Overcast
6:54 PM 55.0 °F - 28.0 °F 35% 30.40 in 10.0 mi West 4.6 mph - N/A   Overcast
7:54 PM 46.9 °F - 30.9 °F 54% 30.41 in 10.0 mi Calm Calm - N/A   Partly Cloudy
8:54 PM 45.0 °F - 32.0 °F 60% 30.43 in 10.0 mi Calm Calm - N/A   Clear
9:54 PM 37.9 °F - 32.0 °F 79% 30.43 in 10.0 mi Calm Calm - N/A   Clear
10:54 PM 35.1 °F - 32.0 °F 89% 30.43 in 10.0 mi Calm Calm - N/A   Clear
11:54 PM 36.0 °F 33.3 °F 32.0 °F 86% 30.43 in 10.0 mi WNW 3.5 mph - N/A   Overcast